Regional Weather Roundup
Issued by NWS

Home | Current Version | Previous Version | Text Only | Print | Product List | Glossary Off
Versions: 1 2 3 4 5 6 7 8 9 10 11 12 13 14 15 16 17 18 19 20 21 22 23 24 25 26 27 28 29 30 31 32 33 34 35 36 37 38 39 40 41 42 43 44 45 46 47 48 49 50

000
ASUS43 KLOT 221906
RWRIL

ILLINOIS REGIONAL WEATHER ROUNDUP
NATIONAL WEATHER SERVICE CHICAGO/ROMEOVILLE IL
200 PM CDT TUE JUL 22 2014

NOTE: "FAIR" INDICATES FEW OR NO CLOUDS BELOW 12,000 FEET WITH NO
SIGNIFICANT WEATHER AND/OR OBSTRUCTIONS TO VISIBILITY.

* THESE STATIONS ARE NOT UNDER NWS QUALITY CONTROL. THEY ALSO MAY NOT
  REPORT WEATHER SUCH AS PRECIPITATION OR FOG.

ILZ001-002-007-009-015-016-024-222000-
NORTHWEST ILLINOIS

CITY           SKY/WX    TMP DP  RH WIND       PRES   REMARKS
MOLINE         MOSUNNY   89  76  65 SW12      29.93F HX 100
STERLING*      SUNNY     90  75  62 W7        29.95F HX 100
SAVANNA*       SUNNY     91  73  55 SW10      29.92F HX  99
$$

ILZ003-004-008-010-011-017-018-222000-
NORTH CENTRAL ILLINOIS

CITY           SKY/WX    TMP DP  RH WIND       PRES   REMARKS
ROCKFORD       PTSUNNY   87  74  64 SW13      29.95F HX  95
FREEPORT*      MOSUNNY   82  76  79 SW10      29.96F HX  90
ROCHELLE*      MOSUNNY   86  74  67 S12       29.95F HX  94
DE KALB*       PTSUNNY   83  73  72 SW12G18   29.98F HX  89
PERU*          SUNNY     88  73  61 SW12G17   29.98F HX  95
$$

ILZ005-006-012>014-019>023-222000-
NORTHEAST ILLINOIS

CITY           SKY/WX    TMP DP  RH WIND       PRES   REMARKS
CHICAGO-OHARE  MOSUNNY   88  69  53 SW17G23   29.95F HX  92
CHICAGO-MIDWAY MOSUNNY   89  72  56 SW15G22   29.96F HX  96
AURORA         MOSUNNY   87  72  60 S15       29.97F HX  93
LANSING*       MOSUNNY   86  68  55 SW12      29.99F HX  89
JOLIET*        MOSUNNY   85  70  60 SW10G18   29.98F HX  90
WAUKEGAN       MOSUNNY   89  71  55 SW15G24   29.93F HX  95
DUPAGE AIRPORT SUNNY     88  72  58 SW16G22   29.96F HX  94
KANKAKEE*      SUNNY     87  73  63 S12       30.01F HX  95
WHEELING       SUNNY     90  70  51 SW16G23   29.95F HX  95
MORRIS*        MOSUNNY   87  74  64 S12G18    29.98S HX  95
ROMEOVILLE*    MOSUNNY   87  71  58 SW13G21   29.97F HX  92
NORTHERLY ISL    N/A     86  67  52 S16         N/A  HX  89
$$

LMZ740>746-222000-
SOUTHERN LAKE MICHIGAN

STATION/POSITION SKY/WX   TEMP    WIND        PRES    VSBY  WAVE
                          AIR SEA DIR/SP/G                  HT/PER
                          (F)     (DEG/KT/KT) (MB)    (MI)  (FT/S)
SOUTHERN BUOY              71 68  170/ 16/ 17 1013.7F         2/ 4
WAUKEGAN HARBOR            85     220/ 19/ 22 1014.2F
HARRISON CRIB              82     190/ 19/ 21   N/A
BURNHAM HARBOR             87     190/ 13/ 17   N/A
CALUMET HARBOR             84     200/ 11/ 15 1013.8F
MICHIGAN CITY              83     170/ 11/ 14   N/A
$$

ILZ025>027-034>036-040-047-049-050-058-095>099-222000-
WEST-CENTRAL ILLINOIS

CITY           SKY/WX    TMP DP  RH WIND       PRES   REMARKS
QUINCY         CLOUDY    80  74  81 SW12      29.98F HX  85
GALESBURG*     PTSUNNY   84  75  75 S9        29.99S HX  91
MACOMB*        CLOUDY    77  73  87 SE7       30.02S
JACKSONVILLE*  CLOUDY    84  75  73 S5        30.02R HX  92
PITTSFIELD*    CLOUDY    80  73  78 S6        30.01S HX  83
$$

ILZ028>032-037-038-041>044-048-051>054-059>061-222000-
CENTRAL ILLINOIS

CITY           SKY/WX    TMP DP  RH WIND       PRES   REMARKS
PONTIAC        MOSUNNY   88  73  62 SW9       29.99F HX  96
BLOOMINGTON    MOSUNNY  122  32   5 S15       30.03F HX 111
DECATUR        PTSUNNY   84  70  62 S13       30.05S HX  88
PEORIA         MOSUNNY   89  73  59 SW10      30.00S HX  97
LACON*         SUNNY     86  73  64 SW9       29.97F HX  93
LINCOLN*       PTSUNNY   86  71  59 S10G17    29.97F HX  92
SPRINGFIELD    CLOUDY    86  72  62 S10G20    29.99F HX  92
TAYLORVILLE    CLOUDY    82  72  69 S9        30.03F HX  87
$$

ILZ033-039-045-046-055>057-062-063-222000-
EAST-CENTRAL ILLINOIS

CITY           SKY/WX    TMP DP  RH WIND       PRES   REMARKS
CHAMPAIGN      MOSUNNY   85  70  60 S10       30.05F HX  89
RANTOUL*       MOSUNNY   85  70  59 SW8       30.06S HX  90
MATTOON        SUNNY     84  69  60 S9        30.05F HX  88
PARIS*         MOSUNNY   85  71  64 SW6       30.07F HX  90
$$

ILZ079-100>102-222000-
SOUTHWEST ILLINOIS

CITY           SKY/WX    TMP DP  RH WIND       PRES   REMARKS
ALTON          CLOUDY    88  73  62 SW12      30.04F HX  96
CAHOKIA*       PTSUNNY   89  69  51 SW8       30.05F HX  93
SPARTA*        SUNNY     84  68  58 SW8       30.08F HX  87
$$

ILZ064>066-069>071-074>076-080>082-084>086-088>090-092>094-222000-
SOUTH-CENTRAL ILLINOIS

CITY           SKY/WX    TMP DP  RH WIND       PRES   REMARKS
CARBONDALE     SUNNY     87  67  51 VRB7      30.09S HX  90
CAIRO*         SUNNY     90  69  51 S3        30.08F HX  94
MARION         MOSUNNY   86  70  58 S7        30.09F HX  90
MT. VERNON     SUNNY     88  70  55 S9        30.08F HX  92
CENTRALIA*     SUNNY     92  62  37 SW7       30.08S HX  92
SALEM*         SUNNY     90  68  49 SW9       30.08S HX  93
METROPOLIS*    SUNNY     89  62  40 SW3       30.07F HX  90
$$

ILZ067-068-072-073-078-083-087-091-222000-
SOUTHEAST ILLINOIS

CITY           SKY/WX    TMP DP  RH WIND       PRES   REMARKS
FLORA*         SUNNY     86  67  52 SW8       30.07F HX  89
FAIRFIELD*     SUNNY     88  73  62 SW5       30.07F HX  96
HARRISBURG*    SUNNY     88  68  52 S6        30.08F HX  91
ROBINSON*      MOSUNNY   88  71  55 SW9       30.08S HX  94
CARMI*         SUNNY     89  73  57 S6        30.06F HX  96
$$

ABBREVIATIONS USED IN REMARKS
   TC - TEMPERATURE IN CELSIUS
  WCI - WIND CHILL INDEX
   HX - HEAT INDEX
  VSB - VISIBILITY
$$



USA.gov is the U.S. government's official web portal to all federal, state and local government web resources and services.